Weather History for KGVL - September, 2013

Change the Weather History Date:

Tuesday, September 24, 2013

  Actual Average Record
Temperature  
Mean Temperature 67 °F 69 °F  
Max Temperature 70 °F 78 °F 97 °F (1931)
Min Temperature 63 °F 60 °F 42 °F (1942)
Degree Days  
Heating Degree Days 0 1  
Month to date heating degree days 0 4  
Since 1 July heating degree days 2 4  
Cooling Degree Days 2 5  
Month to date cooling degree days 213 193  
Year to date cooling degree days 1365 1519  
Growing Degree Days 16 (Base 50)    
Moisture  
Dew Point 60 °F    
Average Humidity 80    
Maximum Humidity 93    
Minimum Humidity 66    
Precipitation  
Precipitation 0.05 in 0.16 in 1.90 in (2000)
Month to date precipitation 1.09 3.74  
Year to date precipitation 42.99 39.99  
Sea Level Pressure  
Sea Level Pressure 30.02 in    
Wind  
Wind Speed 5 mph (East)    
Max Wind Speed 12 mph    
Max Gust Speed 28 mph    
Visibility 8 miles    
Events Rain    
T = Trace of Precipitation, MM = Missing Value Source: NWS Daily Summary

Daily Weather History Graph

Daily Weather History Graph

Search for Another Location

Airport or City:

Trip Planner

Search our weather history database for the weather conditions in past years. The results will help you decide how hot, cold, wet, or windy it might be!

Date:

Astronomy

Sep. 24, 2013 Rise Set
Actual Time 7:24 AM EDT 7:28 PM EDT
Civil Twilight 6:59 AM EDT 7:53 PM EDT
Nautical Twilight 6:30 AM EDT 8:23 PM EDT
Astronomical Twilight 6:01 AM EDT 8:52 PM EDT
Moon 10:59 PM EDT (9/24) 12:25 PM EDT (9/24)
Length of Visible Light 12h 53m
Length of Day
12h 03m
Waning Gibbous, 73% of the Moon is Illuminated
Sep 24
Waning Gibbous
Sep 26
Last Quarter
Oct 4
New
Oct 11
First Quarter
Oct 18
Full

Hourly Weather History & Observations

Time (EDT) Temp. Dew Point Humidity Pressure Visibility Wind Dir Wind Speed Gust Speed Precip Events Conditions
12:53 AM 64.0 °F 57.0 °F 78% 30.04 in 10.0 mi East 5.8 mph - N/A   Mostly Cloudy
1:53 AM 64.0 °F 57.0 °F 78% 30.04 in 10.0 mi ENE 4.6 mph - N/A   Overcast
2:53 AM 64.0 °F 55.9 °F 75% 30.03 in 10.0 mi ENE 4.6 mph - N/A   Overcast
3:53 AM 64.0 °F 55.9 °F 75% 30.02 in 10.0 mi ENE 4.6 mph - N/A   Overcast
4:53 AM 64.0 °F 57.0 °F 78% 30.03 in 10.0 mi East 4.6 mph - N/A   Overcast
5:53 AM 63.0 °F 57.0 °F 81% 30.04 in 9.0 mi East 3.5 mph - 0.00 in   Overcast
6:53 AM 63.0 °F 57.0 °F 81% 30.05 in 10.0 mi Calm Calm - N/A   Overcast
7:53 AM 63.0 °F 57.9 °F 84% 30.06 in 10.0 mi ENE 4.6 mph - N/A   Overcast
8:53 AM 64.0 °F 57.9 °F 80% 30.06 in 10.0 mi East 5.8 mph - N/A   Overcast
9:51 AM 64.4 °F 59.0 °F 83% 30.09 in 10.0 mi East 6.9 mph - N/A   Overcast
9:53 AM 64.9 °F 59.0 °F 81% 30.06 in 10.0 mi ENE 4.6 mph - N/A   Overcast
10:04 AM 64.4 °F 59.0 °F 83% 30.09 in 10.0 mi East 6.9 mph - N/A   Overcast
10:32 AM 64.4 °F 60.8 °F 88% 30.09 in 4.0 mi East 5.8 mph - 0.01 in Rain Light Rain
10:38 AM 64.4 °F 60.8 °F 88% 30.09 in 2.0 mi East 5.8 mph - 0.03 in Rain Rain
10:45 AM 64.4 °F 60.8 °F 88% 30.09 in 2.5 mi ENE 4.6 mph - 0.04 in Rain Light Rain
10:53 AM 64.0 °F 60.1 °F 87% 30.06 in 3.0 mi ENE 4.6 mph - 0.04 in Rain Light Rain
11:23 AM 64.4 °F 62.6 °F 94% 30.08 in 6.0 mi ESE 6.9 mph - 0.00 in   Overcast
11:44 AM 66.2 °F 60.8 °F 83% 30.08 in 9.0 mi East 8.1 mph - 0.00 in   Overcast
11:49 AM 66.2 °F 60.8 °F 83% 30.08 in 9.0 mi ESE 6.9 mph - 0.00 in   Overcast
11:53 AM 66.0 °F 61.0 °F 84% 30.05 in 10.0 mi ESE 6.9 mph - 0.00 in   Overcast
12:20 PM 66.2 °F 60.8 °F 83% 30.07 in 10.0 mi ESE 5.8 mph - N/A   Overcast
12:53 PM 66.9 °F 61.0 °F 81% 30.04 in 8.0 mi ENE 5.8 mph - 0.00 in   Overcast
1:53 PM 68.0 °F 60.1 °F 76% 30.02 in 9.0 mi East 5.8 mph - N/A   Overcast
2:53 PM 69.1 °F 57.9 °F 68% 30.00 in 10.0 mi East 6.9 mph - N/A   Overcast
3:53 PM 69.1 °F 59.0 °F 70% 29.98 in 10.0 mi SE 6.9 mph - N/A   Overcast
4:53 PM 69.1 °F 60.1 °F 73% 29.97 in 10.0 mi SE 4.6 mph - N/A   Overcast
5:53 PM 66.9 °F 61.0 °F 81% 29.97 in 10.0 mi SSE 4.6 mph - N/A   Overcast
6:53 PM 66.9 °F 61.0 °F 81% 29.96 in 10.0 mi ESE 4.6 mph - N/A   Overcast
7:09 PM 66.2 °F 60.8 °F 83% 29.99 in 10.0 mi SE 4.6 mph - N/A   Overcast
7:53 PM 66.0 °F 61.0 °F 84% 29.95 in 10.0 mi SE 4.6 mph - N/A   Overcast
8:45 PM 64.4 °F 60.8 °F 88% 29.97 in 10.0 mi SE 8.1 mph - N/A   Overcast
8:53 PM 64.9 °F 61.0 °F 87% 29.95 in 9.0 mi ESE 6.9 mph - N/A   Overcast
9:53 PM 64.0 °F 61.0 °F 90% 29.95 in 10.0 mi East 6.9 mph - N/A   Overcast
10:23 PM 64.4 °F 60.8 °F 88% 29.98 in 5.0 mi ESE 4.6 mph - 0.00 in   Overcast
10:53 PM 63.0 °F 61.0 °F 93% 29.95 in 7.0 mi East 8.1 mph - 0.00 in   Overcast
11:20 PM 62.6 °F 60.8 °F 94% 29.97 in 6.0 mi East 8.1 mph - 0.00 in Rain Light Rain
11:45 PM 62.6 °F 60.8 °F 94% 29.96 in 6.0 mi East 6.9 mph - 0.00 in   Overcast
11:53 PM 63.0 °F 61.0 °F 93% 29.93 in 5.0 mi East 8.1 mph - 0.00 in   Overcast